Simultaneous Nadir Overpasses (SNOs) Predictions

Prediction of SNOs between LANDSAT-8 and NPP Satellite Orbit:

Table of predicted SNOs for the next 14.0 days since TLE Epoch: 9/5/2014
Index Date (LANDSAT-8) Time (LANDSAT-8) Lat,Lon (LANDSAT-8) SZA (LANDSAT-8 ) Date (NPP) Time (NPP) Lat,Lon (NPP) SZA (NPP ) Distance(km) Time Diff (sec)
1 09/05/2014 17:28:43 -70.76, 95.23 115.98 09/05/2014 17:27:59 -70.78, 95.17 115.96 2.62 44
2 09/05/2014 18:18:10 70.67, -97.28 63.94 09/05/2014 18:18:43 70.64, -97.30 63.92 2.81 33
3 09/08/2014 08:55:36 71.25, 44.23 65.49 09/08/2014 08:54:26 71.33, 42.68 65.59 55.81 70
4 09/08/2014 09:45:14 -70.70,-148.99 115.04 09/08/2014 09:44:58 -70.73,-148.98 115.01 3.40 16
5 09/08/2014 10:34:41 70.60, 18.50 64.87 09/08/2014 10:35:42 70.60, 18.55 64.87 1.84 61
6 09/11/2014 01:12:14 70.79, 159.38 66.04 09/11/2014 01:11:15 70.76, 159.41 66.02 3.02 59
7 09/11/2014 02:01:44 -70.68, -33.15 114.06 09/11/2014 02:01:57 -70.68, -33.14 114.05 0.96 13
8 09/11/2014 02:51:22 69.97, 133.46 65.26 09/11/2014 02:52:30 69.97, 135.29 65.24 69.73 68
9 09/13/2014 17:28:44 70.75, -84.80 67.02 09/13/2014 17:28:15 70.77, -84.84 67.05 3.27 29
10 09/13/2014 18:18:14 -70.64, 82.67 113.08 09/13/2014 18:18:56 -70.64, 82.70 113.07 0.98 42
11 09/16/2014 08:55:44 -70.91,-136.32 111.81 09/16/2014 08:54:31 -70.97,-136.70 111.74 15.44 73
12 09/16/2014 09:45:13 70.69, 31.00 68.00 09/16/2014 09:45:12 70.68, 31.08 67.99 3.02 1
13 09/16/2014 10:34:43 -70.59,-161.53 112.10 09/16/2014 10:35:54 -70.60,-161.47 112.09 2.61 71
14 09/19/2014 01:12:15 -70.79, -20.62 110.90 09/19/2014 01:11:27 -70.77, -20.61 110.91 1.87 48
15 09/19/2014 02:01:42 70.68, 146.86 69.01 09/19/2014 02:02:12 70.70, 146.81 69.04 2.84 30




NCC Satellite Simultaneous Nadir Overpasses (SNOs) Prediction Service
